STARLINK-1547 (46347 NORAD) Tracking and Keplerian Element Data

This shows tracking and keplerian element data for the satellite.

Feedback or suggestion? Click here.




ElementValue
Catalog46347
NameSTARLINK-1547
Epoch Orbit402
Epoch Day267.83334491
Epoch Year2020
RAAN329.7852
Inclination53.0024
Eccentricity0.0001373
Argument of Perigee70.9594
Mean Anonmoly173.554
Mean Motion15.62759633
Decay Rate-0.00034559
L11 46347U 20062Y 20267.83334491 -.00034559 00000-0 -37308-3 0 9998
L22 46347 53.0024 329.7852 0001373 70.9594 173.5540 15.62759633 4022

Live tracking and technical data element details for STARLINK-1547 (NORAD 46347). STARLINK-1547 can be tracked NOW for your location showing map with azimuth and elevation plus other details from your city location.

Track the satellite on the map from your city or location and see movement details for azimuth, elevation, latitude, longitude, range, height, and movement on the map or in text.







IsCatalogInMostPopularTable: catalog: 46347, numindb: 2
Update: records affected: 1



GetName: 46347 STARLINK-1547

Hit Count: updated at: Thu, 24 Sep 2020 17:49:40 GMT